Location: Maccacari
(45.1333°N, 11.1333°E)
Time: 21:34:21
(UTC+00:00)

Cosmos 1867 - Pass Details

Date: 18 September 2020
Orbit: 777 x 799 km, 65.0° (Epoch: 25 October)

Event Time Altitude Azimuth Distance (km) Brightness Sun altitude
Rises 18:26:33 0° 325° (NW) 3,312 7.6 -12.4°
Reaches altitude 10° 18:29:00 10° 328° (NNW) 2,380 6.8 -12.8°
Maximum altitude 18:34:28 71° 53° (NE) 844 3.6 -13.8°
Enters shadow 18:38:38 18° 135° (SE) 1,892 5.0 -14.5°
